.
WxDataArchive / Data Records for 2007-01-14
2007-01-13 January 2007 2007-01-15

Data Records for Sunday, 14 January 2007

Time	Temp	Chill	HIndex	Humid	Dewpt	 Wind 	HiWind	WindDir	Rain 	Barom 
-----	----	-----	------	-----	-----	------	------	-------	-----	----- 
00:00	32.2	32.2	32.2	96	31.2	0	1	68	0.00	30.233 
00:05	32.2	32.2	32.2	96	31.2	1	3	90	0.00	30.232 
00:10	32.2	32.2	32.2	95	30.9	0	2	90	0.00	30.231 
00:15	32.2	32.2	32.2	95	30.9	0	2	90	0.00	30.231 
00:20	32.2	32.2	32.2	95	30.9	0	3	68	0.00	30.232 
00:25	32.2	32.2	32.2	95	30.9	0	1	68	0.00	30.231 
00:30	32.2	32.2	32.2	95	30.9	0	2	68	0.00	30.228 
00:35	32.2	32.2	32.2	95	30.9	1	3	68	0.00	30.217 
00:40	32.2	32.2	32.2	95	30.9	0	2	68	0.00	30.216 
00:45	32.2	32.2	32.2	95	30.9	1	3	45	0.00	30.220 
00:50	32.1	32.1	32.1	95	30.8	1	3	45	0.00	30.217 
00:55	32.1	32.1	32.1	95	30.8	0	3	45	0.00	30.211 
01:00	32.1	32.1	32.1	95	30.8	2	5	112	0.00	30.202 
01:05	32.1	32.1	32.1	95	30.8	1	5	112	0.00	30.201 
01:10	32.1	32.1	32.1	95	30.8	1	4	112	0.00	30.199 
01:15	32.1	32.1	32.1	95	30.8	1	5	112	0.00	30.196 
01:20	32.1	32.1	32.1	95	30.8	2	5	90	0.00	30.192 
01:25	32.1	32.1	32.1	95	30.8	2	6	112	0.00	30.186 
01:30	31.9	31.9	31.9	96	30.9	3	6	112	0.00	30.184 
01:35	31.9	31.9	31.9	96	30.9	2	5	112	0.00	30.182 
01:40	31.9	31.9	31.9	96	30.9	2	7	90	0.00	30.184 
01:45	31.9	31.9	31.9	96	30.9	2	5	112	0.00	30.178 
01:50	31.9	31.9	31.9	96	30.9	2	4	90	0.00	30.181 
01:55	31.9	31.9	31.9	96	30.9	2	5	112	0.00	30.185 
02:00	31.9	31.9	31.9	96	30.9	2	5	90	0.00	30.185 
02:05	31.9	31.9	31.9	96	30.9	2	6	112	0.00	30.189 
02:10	31.9	31.9	31.9	96	30.9	2	4	112	0.00	30.185 
02:15	31.9	31.9	31.9	96	30.9	2	4	112	0.00	30.185 
02:20	31.9	31.9	31.9	96	30.9	1	3	112	0.00	30.191 
02:25	31.9	31.9	31.9	96	30.9	1	3	45	0.00	30.194 
02:30	31.9	31.9	31.9	96	30.9	1	3	112	0.00	30.190 
02:35	31.9	31.9	31.9	96	30.9	1	5	112	0.00	30.185 
02:40	31.9	31.9	31.9	96	30.9	2	9	90	0.00	30.186 
02:45	31.9	31.9	31.9	96	30.9	1	3	112	0.00	30.184 
02:50	31.9	31.9	31.9	96	30.9	1	4	112	0.00	30.188 
02:55	31.9	31.9	31.9	96	30.9	1	2	112	0.00	30.194 
03:00	31.9	31.9	31.9	96	30.9	1	3	112	0.00	30.193 
03:05	31.9	31.9	31.9	96	30.9	1	5	112	0.00	30.188 
03:10	31.9	31.9	31.9	96	30.9	1	4	90	0.00	30.197 
03:15	31.9	31.9	31.9	96	30.9	2	4	112	0.00	30.199 
03:20	31.9	31.9	31.9	96	30.9	0	3	90	0.00	30.194 
03:25	31.9	31.9	31.9	96	30.9	1	3	112	0.00	30.200 
03:30	31.9	31.9	31.9	96	30.9	1	4	112	0.00	30.196 
03:35	31.9	31.9	31.9	96	30.9	1	2	112	0.00	30.195 
03:40	31.9	31.9	31.9	96	30.9	0	2	90	0.00	30.200 
03:45	31.9	31.9	31.9	96	30.9	1	4	112	0.00	30.199 
03:50	31.8	31.8	31.8	96	30.8	1	3	112	0.00	30.201 
03:55	31.8	31.8	31.8	96	30.8	1	2	90	0.00	30.199 
04:00	31.8	31.8	31.8	96	30.8	1	4	90	0.00	30.195 
04:05	31.8	31.8	31.8	96	30.8	1	4	112	0.00	30.198 
04:10	31.8	31.8	31.8	96	30.8	1	5	45	0.00	30.195 
04:15	31.8	31.8	31.8	96	30.8	1	5	90	0.00	30.187 
04:20	31.8	31.8	31.8	96	30.8	1	2	90	0.00	30.186 
04:25	31.8	31.8	31.8	96	30.8	1	3	112	0.00	30.180 
04:30	31.8	31.8	31.8	96	30.8	1	3	68	0.01	30.172 
04:35	31.8	31.8	31.8	96	30.8	2	5	112	0.00	30.184 
04:40	31.8	31.8	31.8	96	30.8	1	3	112	0.00	30.186 
04:45	31.8	31.8	31.8	96	30.8	0	2	68	0.00	30.190 
04:50	31.8	31.8	31.8	96	30.8	2	5	112	0.00	30.186 
04:55	31.9	31.9	31.9	96	30.9	1	2	90	0.00	30.186 
05:00	31.9	31.9	31.9	96	30.9	1	4	45	0.00	30.185 
05:05	31.8	31.8	31.8	96	30.8	2	6	112	0.00	30.177 
05:10	31.8	31.8	31.8	96	30.8	1	3	90	0.00	30.181 
05:15	31.9	31.9	31.9	96	30.9	2	4	112	0.00	30.171 
05:20	31.8	31.8	31.8	96	30.8	2	5	112	0.00	30.169 
05:25	31.8	31.8	31.8	96	30.8	1	6	112	0.00	30.175 
05:30	31.8	31.8	31.8	96	30.8	2	5	90	0.00	30.176 
05:35	31.8	31.8	31.8	96	30.8	2	6	90	0.00	30.176 
05:40	31.8	31.8	31.8	96	30.8	2	5	112	0.00	30.171 
05:45	31.9	31.9	31.9	96	30.9	1	4	90	0.00	30.179 
05:50	31.8	31.8	31.8	96	30.8	2	4	112	0.00	30.173 
05:55	31.8	31.8	31.8	96	30.8	1	3	45	0.00	30.174 
06:00	31.9	31.9	31.9	96	30.9	1	5	112	0.00	30.170 
06:05	31.9	31.9	31.9	96	30.9	2	6	90	0.00	30.168 
06:10	31.9	31.9	31.9	96	30.9	2	4	112	0.00	30.171 
06:15	31.8	31.8	31.8	96	30.8	2	5	112	0.00	30.174 
06:20	31.8	31.8	31.8	96	30.8	2	9	90	0.00	30.175 
06:25	31.8	27.8	31.8	96	30.8	4	7	112	0.00	30.172 
06:30	31.8	31.8	31.8	95	30.5	3	6	112	0.00	30.172 
06:35	31.9	31.9	31.9	95	30.6	2	5	112	0.00	30.175 
06:40	31.9	31.9	31.9	96	30.9	2	6	112	0.00	30.182 
06:45	31.9	31.9	31.9	96	30.9	2	6	112	0.00	30.179 
06:50	31.9	31.9	31.9	96	30.9	2	8	68	0.00	30.175 
06:55	31.9	31.9	31.9	96	30.9	1	4	112	0.01	30.179 
07:00	31.8	31.8	31.8	96	30.8	3	7	112	0.00	30.182 
07:05	31.8	31.8	31.8	96	30.8	1	3	112	0.00	30.187 
07:10	31.9	31.9	31.9	96	30.9	1	3	112	0.01	30.216 
07:15	31.9	31.9	31.9	96	30.9	1	5	112	0.02	30.199 
07:20	31.9	31.9	31.9	96	30.9	3	6	90	0.01	30.184 
07:25	31.8	31.8	31.8	96	30.8	2	5	90	0.01	30.186 
07:30	31.8	31.8	31.8	96	30.8	2	5	90	0.00	30.188 
07:35	31.9	31.9	31.9	96	30.9	1	3	90	0.00	30.188 
07:40	31.9	31.9	31.9	96	30.9	2	5	90	0.00	30.185 
07:45	31.9	31.9	31.9	96	30.9	0	2	68	0.01	30.194 
07:50	31.9	31.9	31.9	96	30.9	0	3	68	0.00	30.204 
07:55	31.9	31.9	31.9	96	30.9	0	2	90	0.00	30.214 
08:00	31.9	31.9	31.9	96	30.9	0	1	90	0.00	30.219 
08:05	31.9	31.9	31.9	96	30.9	0	0	---	0.00	30.231 
08:10	32.1	32.1	32.1	96	31.1	0	1	90	0.01	30.233 
08:15	32.1	32.1	32.1	96	31.1	0	1	90	0.01	30.232 
08:20	32.1	32.1	32.1	96	31.1	0	1	90	0.00	30.231 
08:25	32.1	32.1	32.1	96	31.1	0	0	---	0.01	30.220 
08:30	32.1	32.1	32.1	96	31.1	0	1	90	0.00	30.214 
08:35	32.2	32.2	32.2	96	31.2	0	2	68	0.00	30.221 
08:40	32.2	32.2	32.2	96	31.2	0	2	68	0.00	30.214 
08:45	32.2	32.2	32.2	96	31.2	1	3	68	0.00	30.206 
08:50	32.2	32.2	32.2	96	31.2	0	1	0	0.00	30.217 
08:55	32.2	32.2	32.2	96	31.2	0	2	0	0.01	30.212 
09:00	32.2	32.2	32.2	96	31.2	0	2	45	0.00	30.217 
09:05	32.2	32.2	32.2	96	31.2	0	2	90	0.00	30.216 
09:10	32.2	32.2	32.2	96	31.2	0	1	112	0.00	30.219 
09:15	32.2	32.2	32.2	96	31.2	1	4	68	0.00	30.211 
09:20	32.2	32.2	32.2	96	31.2	1	2	90	0.00	30.210 
09:25	32.4	32.4	32.4	96	31.4	1	3	90	0.00	30.207 
09:30	32.4	32.4	32.4	96	31.4	1	4	90	0.00	30.206 
09:35	32.4	32.4	32.4	96	31.4	2	6	112	0.00	30.204 
09:40	32.4	32.4	32.4	96	31.4	1	4	45	0.00	30.203 
09:45	32.4	32.4	32.4	96	31.4	1	5	112	0.00	30.209 
09:50	32.4	32.4	32.4	96	31.4	1	4	68	0.00	30.216 
09:55	32.4	32.4	32.4	96	31.4	1	4	45	0.00	30.216 
10:00	32.4	32.4	32.4	96	31.4	1	2	45	0.00	30.217 
10:05	32.4	32.4	32.4	96	31.4	1	4	90	0.00	30.221 
10:10	32.5	32.5	32.5	96	31.5	1	3	112	0.01	30.228 
10:15	32.5	32.5	32.5	96	31.5	1	3	112	0.00	30.239 
10:20	32.5	32.5	32.5	96	31.5	1	2	0	0.00	30.240 
10:25	32.5	32.5	32.5	96	31.5	0	1	0	0.01	30.249 
10:30	32.5	32.5	32.5	96	31.5	0	1	0	0.01	30.240 
10:35	32.5	32.5	32.5	96	31.5	1	4	45	0.01	30.233 
10:40	32.7	32.7	32.7	96	31.7	1	3	90	0.02	30.231 
10:45	32.7	32.7	32.7	96	31.7	1	4	68	0.01	30.232 
10:50	32.7	32.7	32.7	96	31.7	1	4	90	0.00	30.236 
10:55	32.7	32.7	32.7	96	31.7	1	3	135	0.00	30.239 
11:00	32.7	32.7	32.7	96	31.7	0	2	68	0.00	30.250 
11:05	32.7	32.7	32.7	96	31.7	1	2	45	0.00	30.230 
11:10	32.8	32.8	32.8	96	31.8	1	4	90	0.01	30.233 
11:15	32.9	32.9	32.9	96	31.9	1	5	90	0.01	30.232 
11:20	32.9	32.9	32.9	96	31.9	1	3	68	0.00	30.226 
11:25	32.9	32.9	32.9	96	31.9	1	5	90	0.00	30.231 
11:30	33.1	33.1	33.1	96	32.1	1	2	90	0.00	30.233 
11:35	33.2	33.2	33.2	96	32.2	1	4	90	0.00	30.236 
11:40	33.2	33.2	33.2	96	32.2	1	3	112	0.01	30.230 
11:45	33.1	33.1	33.1	96	32.1	3	7	112	0.00	30.223 
11:50	33.1	33.1	33.1	95	31.8	2	4	112	0.01	30.231 
11:55	33.2	33.2	33.2	95	31.9	1	6	90	0.00	30.221 
12:00	33.2	33.2	33.2	95	31.9	2	7	112	0.00	30.217 
12:05	33.1	33.1	33.1	95	31.8	3	9	112	0.00	30.214 
12:10	33.2	33.2	33.2	95	31.9	2	5	135	0.01	30.212 
12:15	33.4	33.4	33.4	95	32.1	2	6	90	0.00	30.208 
12:20	33.2	29.5	33.2	95	31.9	4	7	112	0.00	30.203 
12:25	33.4	33.4	33.4	95	32.1	2	5	112	0.00	30.201 
12:30	33.5	33.5	33.5	95	32.2	2	6	112	0.00	30.192 
12:35	33.7	33.7	33.7	95	32.4	2	6	112	0.00	30.186 
12:40	33.7	33.7	33.7	95	32.4	3	11	112	0.00	30.186 
12:45	33.8	33.8	33.8	95	32.5	2	6	90	0.00	30.187 
12:50	34.0	34.0	34.0	95	32.7	1	5	112	0.00	30.191 
12:55	34.3	34.3	34.3	95	33.0	2	9	112	0.00	30.180 
13:00	34.3	34.3	34.3	95	33.0	3	7	112	0.00	30.173 
13:05	34.3	34.3	34.3	95	33.0	2	6	112	0.00	30.184 
13:10	34.1	34.1	34.1	94	32.6	3	7	112	0.00	30.181 
13:15	34.3	34.3	34.3	94	32.8	3	6	112	0.00	30.177 
13:20	34.3	34.3	34.3	94	32.8	3	6	112	0.00	30.179 
13:25	34.1	34.1	34.1	93	32.3	3	9	112	0.00	30.176 
13:30	34.3	34.3	34.3	93	32.5	2	6	68	0.00	30.173 
13:35	34.3	34.3	34.3	93	32.5	3	10	112	0.00	30.170 
13:40	34.4	34.4	34.4	93	32.6	3	7	112	0.00	30.159 
13:45	34.4	34.4	34.4	93	32.6	3	7	112	0.00	30.161 
13:50	34.6	34.6	34.6	93	32.8	2	7	112	0.00	30.163 
13:55	34.4	34.4	34.4	93	32.6	3	6	112	0.00	30.169 
14:00	34.6	34.6	34.6	92	32.5	2	7	112	0.00	30.176 
14:05	34.6	34.6	34.6	93	32.8	1	3	112	0.00	30.184 
14:10	34.7	34.7	34.7	93	32.9	1	3	90	0.00	30.182 
14:15	34.6	34.6	34.6	92	32.5	1	5	90	0.00	30.169 
14:20	34.6	34.6	34.6	92	32.5	3	7	90	0.00	30.170 
14:25	34.6	34.6	34.6	92	32.5	1	4	45	0.00	30.164 
14:30	34.6	34.6	34.6	92	32.5	2	6	112	0.00	30.166 
14:35	34.6	34.6	34.6	92	32.5	2	6	45	0.00	30.170 
14:40	34.6	34.6	34.6	92	32.5	2	7	112	0.00	30.167 
14:45	34.6	34.6	34.6	92	32.5	1	6	68	0.00	30.168 
14:50	34.6	34.6	34.6	92	32.5	1	3	22	0.00	30.167 
14:55	34.4	34.4	34.4	92	32.3	2	6	90	0.00	30.155 
15:00	34.4	34.4	34.4	92	32.3	3	7	112	0.00	30.163 
15:05	34.4	34.4	34.4	92	32.3	3	6	112	0.00	30.168 
15:10	34.4	34.4	34.4	92	32.3	2	9	112	0.00	30.160 
15:15	34.4	34.4	34.4	92	32.3	2	8	112	0.00	30.153 
15:20	34.4	34.4	34.4	92	32.3	2	7	112	0.00	30.152 
15:25	34.4	34.4	34.4	92	32.3	3	9	112	0.00	30.144 
15:30	34.3	34.3	34.3	92	32.2	2	7	112	0.00	30.151 
15:35	34.3	30.7	34.3	92	32.2	4	10	112	0.00	30.150 
15:40	34.1	34.1	34.1	92	32.0	3	9	90	0.00	30.138 
15:45	34.3	30.7	34.3	92	32.2	4	9	112	0.00	30.139 
15:50	34.1	30.5	34.1	92	32.0	4	8	112	0.00	30.144 
15:55	34.1	34.1	34.1	92	32.0	3	6	112	0.00	30.142 
16:00	34.1	34.1	34.1	92	32.0	3	9	112	0.00	30.146 
16:05	34.3	34.3	34.3	93	32.5	2	6	112	0.00	30.152 
16:10	34.3	34.3	34.3	92	32.2	2	5	90	0.00	30.151 
16:15	34.1	34.1	34.1	92	32.0	3	7	112	0.00	30.156 
16:20	34.1	30.5	34.1	92	32.0	4	9	112	0.00	30.152 
16:25	34.1	34.1	34.1	92	32.0	3	7	112	0.00	30.148 
16:30	34.1	30.5	34.1	92	32.0	4	9	112	0.00	30.141 
16:35	34.1	34.1	34.1	93	32.3	3	8	112	0.00	30.139 
16:40	34.1	34.1	34.1	93	32.3	3	6	112	0.00	30.137 
16:45	34.1	34.1	34.1	93	32.3	2	6	112	0.00	30.138 
16:50	34.0	34.0	34.0	93	32.2	3	7	112	0.00	30.142 
16:55	33.8	30.2	33.8	93	32.0	4	10	112	0.00	30.146 
17:00	33.8	29.2	33.8	93	32.0	5	11	112	0.00	30.144 
17:05	33.8	33.8	33.8	93	32.0	3	8	112	0.00	30.148 
17:10	33.8	33.8	33.8	93	32.0	3	10	112	0.00	30.148 
17:15	33.7	33.7	33.7	94	32.2	2	5	112	0.00	30.152 
17:20	33.7	33.7	33.7	94	32.2	3	7	112	0.00	30.152 
17:25	33.7	33.7	33.7	94	32.2	3	6	112	0.00	30.153 
17:30	33.7	33.7	33.7	94	32.2	2	5	112	0.00	30.157 
17:35	33.5	33.5	33.5	94	32.0	3	9	112	0.00	30.153 
17:40	33.5	33.5	33.5	94	32.0	3	7	90	0.00	30.153 
17:45	33.5	33.5	33.5	94	32.0	3	9	90	0.00	30.157 
17:50	33.5	33.5	33.5	94	32.0	2	7	90	0.00	30.163 
17:55	33.5	33.5	33.5	94	32.0	3	7	90	0.00	30.162 
18:00	33.5	33.5	33.5	94	32.0	3	9	112	0.00	30.157 
18:05	33.5	33.5	33.5	94	32.0	3	7	112	0.00	30.167 
18:10	33.4	33.4	33.4	94	31.9	3	9	90	0.00	30.169 
18:15	33.4	33.4	33.4	94	31.9	1	5	90	0.00	30.168 
18:20	33.4	33.4	33.4	94	31.9	1	6	112	0.00	30.167 
18:25	33.4	33.4	33.4	95	32.1	2	6	112	0.00	30.172 
18:30	33.4	33.4	33.4	95	32.1	3	9	112	0.00	30.169 
18:35	33.4	33.4	33.4	95	32.1	3	6	112	0.00	30.170 
18:40	33.4	33.4	33.4	95	32.1	2	5	112	0.00	30.175 
18:45	33.4	33.4	33.4	95	32.1	1	7	22	0.00	30.181 
18:50	33.4	33.4	33.4	95	32.1	2	6	112	0.00	30.182 
18:55	33.4	33.4	33.4	95	32.1	2	6	112	0.00	30.180 
19:00	33.2	33.2	33.2	95	31.9	2	6	90	0.00	30.173 
19:05	33.2	33.2	33.2	95	31.9	2	6	112	0.00	30.176 
19:10	33.2	33.2	33.2	95	31.9	2	6	90	0.00	30.173 
19:15	33.2	33.2	33.2	95	31.9	2	6	112	0.00	30.175 
19:20	33.1	33.1	33.1	95	31.8	3	7	112	0.00	30.173 
19:25	33.1	33.1	33.1	96	32.1	2	5	112	0.00	30.183 
19:30	33.1	33.1	33.1	96	32.1	3	11	112	0.00	30.184 
19:35	33.1	33.1	33.1	96	32.1	3	9	112	0.00	30.172 
19:40	33.1	29.3	33.1	96	32.1	4	12	112	0.00	30.169 
19:45	32.9	28.1	32.9	96	31.9	5	13	112	0.00	30.172 
19:50	32.9	29.1	32.9	96	31.9	4	7	112	0.00	30.142 
19:55	32.9	32.9	32.9	96	31.9	3	10	90	0.00	30.145 
20:00	32.9	32.9	32.9	96	31.9	3	10	90	0.01	30.145 
20:05	32.9	32.9	32.9	96	31.9	3	11	90	0.00	30.154 
20:10	32.9	32.9	32.9	96	31.9	2	9	90	0.01	30.155 
20:15	32.9	32.9	32.9	96	31.9	3	9	90	0.00	30.155 
20:20	32.8	32.8	32.8	96	31.8	3	8	90	0.00	30.155 
20:25	32.8	32.8	32.8	96	31.8	3	6	112	0.01	30.154 
20:30	32.7	32.7	32.7	96	31.7	3	6	112	0.00	30.155 
20:35	32.7	27.9	32.7	96	31.7	5	10	112	0.00	30.143 
20:40	32.5	27.7	32.5	96	31.5	5	12	112	0.01	30.140 
20:45	32.5	27.7	32.5	96	31.5	5	10	112	0.00	30.129 
20:50	32.5	27.7	32.5	96	31.5	5	10	112	0.00	30.123 
20:55	32.5	26.8	32.5	96	31.5	6	13	112	0.01	30.121 
21:00	32.5	26.8	32.5	96	31.5	6	15	112	0.00	30.108 
21:05	32.5	28.7	32.5	96	31.5	4	11	112	0.00	30.107 
21:10	32.5	26.8	32.5	96	31.5	6	12	112	0.01	30.102 
21:15	32.4	27.5	32.4	96	31.4	5	12	112	0.00	30.098 
21:20	32.4	26.0	32.4	96	31.4	7	14	112	0.00	30.098 
21:25	32.4	26.7	32.4	96	31.4	6	18	112	0.00	30.089 
21:30	32.4	26.7	32.4	96	31.4	6	12	112	0.00	30.092 
21:35	32.4	26.0	32.4	95	31.1	7	14	112	0.00	30.085 
21:40	32.4	26.7	32.4	95	31.1	6	16	112	0.00	30.087 
21:45	32.4	28.5	32.4	95	31.1	4	10	112	0.00	30.065 
21:50	32.2	26.5	32.2	95	30.9	6	17	112	0.01	30.075 
21:55	32.2	26.5	32.2	95	30.9	6	13	112	0.01	30.075 
22:00	32.2	28.3	32.2	95	30.9	4	12	90	0.01	30.080 
22:05	32.2	32.2	32.2	95	30.9	3	11	68	0.00	30.079 
22:10	32.2	32.2	32.2	95	30.9	2	8	112	0.01	30.113 
22:15	32.2	32.2	32.2	95	30.9	3	11	90	0.02	30.087 
22:20	32.1	32.1	32.1	95	30.8	3	6	112	0.03	30.086 
22:25	32.1	28.2	32.1	95	30.8	4	12	112	0.01	30.077 
22:30	32.1	32.1	32.1	95	30.8	1	6	112	0.01	30.076 
22:35	32.1	32.1	32.1	95	30.8	3	9	112	0.01	30.072 
22:40	32.1	28.2	32.1	95	30.8	4	12	112	0.01	30.062 
22:45	32.1	28.2	32.1	96	31.1	4	9	112	0.00	30.063 
22:50	32.1	28.2	32.1	96	31.1	4	7	112	0.01	30.071 
22:55	32.1	32.1	32.1	96	31.1	2	6	112	0.00	30.073 
23:00	32.1	32.1	32.1	96	31.1	1	5	112	0.02	30.075 
23:05	32.1	32.1	32.1	96	31.1	2	6	112	0.00	30.063 
23:10	32.1	32.1	32.1	96	31.1	3	9	112	0.01	30.059 
23:15	32.1	28.2	32.1	96	31.1	4	9	112	0.01	30.054 
23:20	32.1	28.2	32.1	96	31.1	4	11	112	0.01	30.044 
23:25	31.9	28.0	31.9	96	30.9	4	11	112	0.01	30.037 
23:30	32.1	32.1	32.1	96	31.1	3	6	112	0.00	30.030 
23:35	31.9	28.0	31.9	96	30.9	4	10	112	0.01	30.029 
23:40	31.9	28.0	31.9	96	30.9	4	9	112	0.00	30.028 
23:45	31.9	28.0	31.9	96	30.9	4	13	90	0.01	30.026 
23:50	31.9	28.0	31.9	96	30.9	4	13	112	0.00	30.028 
23:55	31.9	31.9	31.9	96	30.9	3	7	112	0.01	30.017 

CoCoRaHS
IN-AL-39
A2 Web Hosting
Creative Commons License
GoDaddy
Look for:

loaded 2017-12-11 14:17:31 • last modified 2010-11-18 10:43:29
Privacy PolicyDisclaimer
• wx.awcolley.com is powered by PmWiki v.2002016 •
• all content (unless otherwise noted) © 2017 A W Colley